Погода в Леуши

Погода в Леуши : погода сейчас, прогноз погоды и архив. Всё, что Вы хотите узнать о погоде в Леуши!

Хотите узнать прогноз погоды в Леуши? Тогда Вам сюда: Погода в Леуши

Поиск расширенной информации на нашем сайте:

Другие новости

Новости СМИ2

Главная страница сайта

Новости сайта

03.07.2017

Напоминаем, что на нашем специализированном сайте Метеоцентр.Азия вы можете получить высокодетализированные автоматические прогнозы погоды по пунктам России, СНГ и мира в авиационном формате (включающие направление и скорость ветра, видимость, явления погоды, количество и форму облачности, нижнюю и верхнюю границу облачности).


Погода в Леуши - сегодня

Время (UTC), дата Ветер
(°,м/с) 
Видим.   Явления Облачность Т
(°С)
Тd
(°С)
f(%) Тe
(°С)
Pmin
(гПа)
dP
(гПа)
Po
(мм)
O2
(г/м3)
Тmin Tmax R s Состояние
почвы
09 20.02.18 170 (Ю) 20000 м    10/4 600 м средняя 
[Sc|As trans]
-5.2 -9.7 71 -7  1020.8  -0.3  759  313           
12 20.02.18 140 (ЮВ) 4000 м  слаб. снег  10/10 300 м 
[Ns]
-5.5 -7.3 87 -7  1019.4  -1.4  758  312           
15 20.02.18 140 (ЮВ) 20000 м  {снег}  10/10 600 м 
[Sc]
-7.9 -9.7 87 -11  1018.1  -1.3  757  315    -4.6  0.3     
18 20.02.18 130 (ЮВ) 20000 м  {снег}  10/10 600 м 
[Sc]
-10.7 -12.7 85 -13  1016.5  -1.7  755  318           
21 20.02.18 140 (ЮВ) 20000 м    10/10 600 м 
[Sc]
-9.6 -12.8 77 -11  1014.8  -1.6  754  316           
00 21.02.18 110 (В) 20000 м    10/10 600 м 
[Sc]
-10.3 -12.9 81 -10  1013.6  -1.3  753  317           
03 21.02.18 140 (ЮВ) 20000 м    10/10 600 м 
[Sc]
-10.4 -13.4 79 -12  1012.3  -1.3  752  316  -11.3      23  равномерный
сухой снег
100% 
06 21.02.18 140 (ЮВ) 10 км  слаб. снег  10/4 600 м средняя, верхняя 
[Sc|As op|Cc]
-9.1 -12.8 74 -11  1011.5  -0.7  752  315           
09 21.02.18 080 (В) 10 км  слаб. снег  10/8 600 м верхняя 
[Sc|Cc]
-7.7 -12.1 71 -7  1010.1  -1.3  751  312           
12 21.02.18 060 (СВ) 20000 м  {снег}  10/9 600 м верхняя 
[Sc|Cc]
-8 -12.9 68 -8  1009.3  -0.8  750  313           
15 21.02.18 320 (СЗ) 4000 м  слаб. снег  10/0 средняя 
[As op]
-9.5 -10.9 90 -11  1008.8  -0.6  750  314    -7.6  0.3     
18 21.02.18 290 (З) 4000 м  слаб. снег  10/0 средняя 
[As op]
-9.9 -11.4 89 -13  1008.3  -0.5  749  314           
21 21.02.18 280 (З) 4000 м  слаб. снег  10/0 средняя 
[As op]
-15.1 -17.3 83 -17  1009.3  0.8  750  321           
00 22.02.18 270 (З) 20000 м  {снег}  ясно 
-18.8 -21.3 81 -23  1010.2  0.8  751  326           
03 22.02.18 250 (З) 20000 м    1/0 средняя 
[Ac lent]
-22.1 -24.6 80 -27  1011  0.6  751  331  -22.1    25  равномерный
сухой снег
100% 
06 22.02.18 250 (З) 20000 м    ясно 
-20.2 -23.7 74 -23  1011.5  0.6  752  329  -22.4         
09 22.02.18 280 (З) 20000 м    ясно 
-16.2 -21.2 65 -19  1011.9  0.5  752  324           
12 22.02.18 270 (З) 20000 м    ясно 
-16 -20.8 67 -16  1013.3  1.4  753  324           
15 22.02.18 250 (З) 20000 м    ясно 
-19.7 -22.3 80 -20  1014.7  1.2  754  329    -15.3       
18 22.02.18 250 (З) 20000 м    ясно 
-21.7 -23.7 84 -22  1015.6  0.9  755  332           
21 22.02.18 220 (ЮЗ) 20000 м    ясно 
-23.7 -26.1 80 -24  1016.4  0.7  755  335           
00 23.02.18 230 (ЮЗ) 20000 м    ясно 
-24.9 -27.5 79 -28  1017.3  0.8  756  337           
03 23.02.18 220 (ЮЗ) 20000 м    3/0 верхняя 
[Ci fib]
-26.7 -29.5 77 -27  1018.2  0.8  756  340  -26.7      24  равномерный
сухой снег
100% 
06 23.02.18 270 (З) 20000 м    ясно 
-21.9 -25.2 75 -22  1018.3  0.3  757  333  -27.1         
09 23.02.18 340 (С) 20000 м    ясно 
-19.3 -23.6 69 -20  1018.5  0.2  757  330           
Время (UTC), дата Ветер
(°,м/с) 
Видим.   Явления Облачность Т
(°С)
Тd
(°С)
f(%) Тe
(°С)
Pmin
(гПа)
dP
(гПа)
Po
(мм)
O2
(г/м3)
Тmin Tmax R s Состояние
почвы

Для получения пояснительной информации подведите курсор к названию столбца.

ПОГОДА в Леуши - архив

Всё, что Вы хотите узнать о погоде в Леуши - удобно и подробно!

Выберите нужную дату (начиная с 1 января 2015* года) и нажмите кнопку "Найти".
Будут отображены архивные сводки погоды по пункту Леуши, начиная с указанной даты.


Отображать данные в формате CSV (для использования в таблицах Excel)


Внимание! Наш архив погоды предназначен исключительно для личного некоммерческого использования в познавательных целях. Если Вам необходимы официальные справки о состоянии погоды (для производственных, юридических, коммерческих и т.п. целей), обращайтесь в органы Росгидромета.

*Примечание: данная дата относится к архиву по метеостанциям СССР (Россия, СНГ, Балтия).
Архив по метеостанциям Зарубежной Европы и Азии (кроме Китая) хранится 10 дней, по другим регионам земного шара (Китай, Африка, Америка, Австралия, Океания) - 1 день.

Леуши - район местоположения метеостанции


Название, широта, долгота, высота метеостанции:
Леуши 59.6°ш. 65.7°д. 72 м над ур. моря [Российская Федерация]

Дополнительная информация

В oтличие oт бoльшинства пoгoдных сайтoв мы публикуем пoдрoбную метеoинфoрмацию в детальнoм прoфессиoнальнoм фoрмате.

Характеристики температуры и влажнoсти вoздуха измеряются на высoте 2 м в тени вдали oт зданий и деревьев.
Скoрoсть ветра измеряется на высoте 10 м (на урoвне рoста челoвека скoрoсть ветра ниже в 1.5-2 раза). Если метеoстанция нахoдится в гoрoде или в лесу, тo скoрoсть ветра занижена на 2-4 м/с пo сравнению с oткрытым местoм. Скoрoсть ветра над акватoриями крупных рек и oзёр, а также на вершинах хoлмoв на 2-5 м/с выше, чем в oбычных услoвиях.
Атмoсфернoе давление в разных тoчках местнoсти мoжет значительнo oтличаться oт давления на метеoстанции, в зависимoсти oт услoвий рельефа (при пoдъёме на 10 м давление пoнижается примернo на 1 мм рт.ст.).